Theta_e
318 315 312 308 295 293 288 291 294 292 292 297 297 297 298 297 298 292 307 319 322 325 330 339 347 349 349 349 350 350 349 348 347 346 346 344 342 339 339 339 340 340 340 338 336 336 334 332 333
312 313 308 299 291 284 284 292 293 293 295 296 297 297 297 297 301 304 309 319 324 327 329 333 343 348 349 349 347 348 345 344 344 344 342 340 338 336 335 335 334 334 333 333 331 328 326 325 325
312 309 303 294 287 285 285 291 292 293 295 295 298 299 298 298 299 303 310 318 322 324 327 330 339 345 344 345 343 342 342 341 341 340 337 337 335 333 331 329 329 328 327 327 326 324 322 321 321
307 302 296 292 288 292 291 294 292 293 294 296 295 294 298 300 301 303 310 318 319 320 324 331 339 341 340 340 339 339 338 338 338 337 335 335 332 329 327 326 325 325 325 324 322 321 320 321 320
302 297 288 286 287 290 292 295 294 294 293 293 295 294 295 297 300 304 313 317 317 317 320 327 338 340 339 337 338 338 337 337 336 334 333 331 327 326 324 324 324 323 323 322 320 321 320 319 319
297 295 288 285 286 291 293 294 294 293 294 293 296 295 295 296 300 304 312 312 314 315 317 323 331 334 334 334 336 336 335 336 334 332 329 326 324 323 323 323 322 321 321 320 321 319 318 317 316
296 292 287 286 288 292 294 293 292 292 293 295 295 295 296 296 299 305 309 309 311 313 315 317 321 326 330 332 332 333 335 333 330 328 326 323 322 321 321 320 320 320 320 318 317 316 315 314 313
297 294 288 287 288 290 293 293 293 294 295 295 297 294 295 298 301 303 305 306 307 309 312 313 315 318 319 320 328 329 330 329 328 325 324 322 322 320 320 320 319 318 318 315 313 312 311 310 309
296 290 286 288 288 292 293 292 294 294 297 295 297 295 295 296 300 300 299 301 303 306 308 309 311 312 312 313 317 322 324 325 324 321 319 312 304 304 304 312 317 316 314 312 310 308 305 303 303
294 287 289 292 291 292 293 293 294 296 293 293 295 296 295 296 298 299 298 302 301 303 304 306 307 308 308 311 310 309 311 310 308 306 303 299 298 299 302 309 314 312 311 309 307 304 300 294 289
294 291 291 294 295 295 294 293 295 293 292 295 295 297 294 294 296 299 300 302 304 305 304 305 305 305 305 305 304 303 302 301 301 300 297 295 295 297 296 295 294 293 296 291 291 289 288 288 288
293 296 295 297 297 295 294 294 293 294 299 299 298 297 294 294 295 298 299 300 300 300 303 303 303 303 302 302 303 300 300 297 296 295 294 292 292 292 291 289 288 287 287 287 287 287 287 287 288
294 295 297 297 297 296 296 296 294 294 298 297 296 296 295 294 295 297 300 299 298 298 301 301 302 303 302 300 300 298 297 297 294 293 292 292 292 289 288 287 286 286 286 286 286 286 286 286 286
292 294 295 295 296 296 295 297 294 297 295 297 295 295 294 294 295 294 293 296 296 298 299 300 301 303 301 301 299 299 297 295 293 291 292 291 291 288 288 286 286 285 285 285 285 285 284 285 285
293 291 291 292 292 293 293 292 290 298 295 296 294 294 294 294 295 295 297 297 297 297 298 298 299 300 300 300 297 298 296 294 293 292 291 290 290 288 287 286 285 285 285 285 285 284 284 284 284
287 287 284 289 291 292 293 287 295 294 291 294 293 293 292 294 295 297 298 297 297 296 294 296 299 298 298 299 296 296 294 294 293 291 291 290 290 288 286 286 285 284 284 284 284 283 282 282 282
284 281 282 286 292 290 290 286 293 293 291 293 295 296 295 295 294 295 297 298 298 297 296 293 296 297 297 297 295 294 293 293 292 290 290 290 289 288 287 286 285 284 284 283 283 282 282 281 282
282 280 282 282 288 286 286 287 292 295 291 295 296 297 297 299 300 302 296 297 297 297 296 295 294 295 295 296 294 291 290 292 290 290 289 289 289 288 286 285 284 284 283 282 282 281 281 281 281
283 282 281 285 290 286 288 288 291 293 294 294 295 296 297 298 301 301 298 295 295 294 294 294 292 293 294 293 291 291 291 291 290 290 290 289 289 287 286 285 284 283 283 282 282 281 281 280 280
286 284 284 288 290 286 287 288 292 293 293 295 295 296 297 298 299 298 298 293 293 295 294 294 293 293 293 294 294 294 293 292 292 290 288 288 287 287 286 285 284 283 282 281 281 281 280 280 279
284 283 285 284 286 286 284 285 286 289 292 295 296 297 297 297 297 298 297 294 292 293 293 294 294 293 293 294 293 286 286 284 284 285 286 286 287 286 286 285 284 283 282 282 280 280 281 280 279
283 287 287 285 282 279 285 280 282 289 289 290 293 294 295 295 295 295 295 292 291 293 294 294 294 293 293 293 292 291 291 289 289 289 289 287 287 286 285 285 284 283 282 281 281 281 280 280 279
286 287 285 283 281 280 279 278 282 285 285 289 291 292 294 293 293 295 295 294 294 293 293 294 293 293 292 292 292 291 291 292 287 287 287 287 286 285 284 284 283 282 282 281 281 280 279 280 279
287 285 284 281 280 276 281 280 286 283 285 286 289 291 293 293 292 292 292 292 292 292 291 291 290 291 291 291 292 291 291 288 286 286 286 285 285 284 284 283 283 282 282 280 281 280 280 279 280
286 282 277 275 274 277 280 280 287 287 289 290 292 292 293 292 292 291 291 291 292 290 289 288 289 289 290 290 291 290 291 287 288 286 287 285 284 284 283 283 282 281 282 281 280 280 279 279 279
283 284 279 273 276 281 279 277 287 290 290 290 291 291 290 290 290 289 289 289 289 289 288 287 287 286 288 289 289 290 290 288 289 287 287 286 286 287 285 283 283 282 281 281 280 280 280 280 280
282 281 286 281 280 276 282 283 289 294 294 292 289 288 290 289 289 289 291 290 289 288 288 287 286 286 287 288 289 288 289 288 288 286 286 286 286 286 284 284 282 281 281 280 280 280 280 279 280
285 286 279 278 273 274 278 282 283 288 290 292 289 290 290 290 291 290 289 291 290 289 287 286 286 286 286 287 288 288 288 288 288 286 285 285 285 284 283 283 283 281 281 280 280 280 280 279 279
282 281 281 282 282 277 276 280 290 291 292 291 290 289 290 291 291 292 291 291 290 288 286 286 285 285 285 286 287 287 287 287 286 285 285 285 285 284 283 283 283 282 281 281 280 280 279 279 278
286 286 286 281 280 282 281 281 293 293 294 294 294 294 291 292 290 290 290 290 291 291 291 287 286 285 285 286 286 287 286 285 285 286 286 286 285 284 284 283 283 282 281 281 280 279 279 279 278
Wind_Speed
3 3 3 5 5 5 4 6 3 3 2 2 6 6 8 5 7 7 4 7 4 10 7 7 10 12 14 14 15 15 13 13 13 10 11 10 8 7 7 7 9 8 9 9 7 9 10 11 11
2 1 5 3 5 2 6 4 6 5 2 4 2 2 1 7 2 3 1 8 6 9 6 6 9 13 14 13 11 10 10 9 10 11 10 9 6 6 7 7 8 9 8 8 9 10 10 11 11
1 4 4 5 4 5 5 5 5 1 3 1 2 2 2 4 2 4 5 9 7 7 6 6 9 10 11 9 9 9 8 7 8 8 7 8 8 8 8 8 9 9 9 8 9 9 9 10 11
3 5 5 4 6 8 7 5 2 2 1 3 1 5 4 3 4 4 5 9 8 6 6 8 9 11 11 13 11 12 12 11 11 10 11 10 10 9 9 8 8 9 9 9 9 9 9 10 10
5 4 3 2 6 7 6 6 5 4 2 2 3 5 5 3 3 4 7 8 10 7 6 6 10 11 11 14 13 12 12 13 11 12 11 11 11 10 9 9 10 10 9 10 10 11 10 10 12
5 4 3 3 5 6 7 4 4 4 3 1 3 1 7 1 4 5 7 7 6 8 6 6 8 10 14 16 13 14 15 13 13 13 12 11 10 10 9 10 9 10 10 10 11 10 10 11 11
6 4 4 3 5 7 4 3 3 3 2 6 2 2 5 3 4 6 6 6 6 5 6 5 5 7 13 12 14 14 14 15 15 14 13 11 11 10 10 10 10 10 11 11 11 10 10 11 11
5 5 1 4 3 7 3 2 1 4 4 2 4 6 7 1 6 7 5 5 5 6 6 6 6 6 6 5 10 11 11 13 13 13 11 10 9 10 10 7 10 11 11 11 10 10 10 10 11
4 4 2 6 4 6 1 2 2 1 1 3 7 5 2 4 7 6 3 2 4 5 7 6 7 6 6 6 6 9 9 10 11 9 11 8 4 6 6 6 10 11 11 11 10 11 10 9 11
5 4 9 7 5 6 3 4 3 1 4 5 6 5 4 6 6 9 9 12 9 10 9 8 7 7 7 4 5 6 5 4 5 6 7 5 5 4 4 6 9 10 10 10 10 10 9 8 4
5 7 5 6 8 4 4 5 5 5 8 11 9 8 6 7 8 10 11 11 18 11 7 11 9 7 8 6 4 3 3 3 4 7 6 6 4 3 3 3 3 3 7 4 5 5 4 5 4
3 8 6 5 4 3 5 5 5 9 18 9 13 8 6 11 14 17 15 16 11 10 11 9 9 9 8 5 6 5 5 4 4 5 8 6 4 4 4 3 4 3 3 4 4 3 4 5 4
5 5 6 7 7 7 5 14 7 12 19 10 8 8 11 11 14 11 15 10 8 12 12 13 13 13 11 9 6 6 7 6 6 5 6 6 6 5 5 4 4 4 3 4 4 4 4 3 3
3 4 7 8 9 8 8 18 4 15 6 10 8 13 12 12 16 7 9 15 14 13 15 13 15 14 12 12 11 9 6 6 6 5 7 7 6 6 5 5 4 4 3 3 4 4 3 3 2
2 7 8 7 6 8 7 11 12 20 1 13 11 11 11 14 9 19 18 18 18 17 13 17 17 14 14 15 11 9 8 7 7 7 7 8 7 7 7 5 5 4 4 5 4 3 2 3 2
3 1 5 3 5 3 8 12 22 8 3 13 13 11 10 14 14 18 16 18 16 14 18 16 16 18 18 15 11 9 8 8 8 7 7 9 9 9 7 6 5 5 4 4 4 2 2 2 2
4 5 7 13 13 5 7 9 14 3 4 10 16 16 12 12 12 15 16 18 17 18 16 17 19 20 20 17 12 11 10 9 8 7 8 9 10 9 8 6 5 6 5 4 4 2 2 2 1
8 6 6 7 8 3 6 14 13 19 5 18 20 19 19 20 26 20 13 13 12 13 15 15 15 19 18 12 9 6 7 8 6 8 8 10 9 9 8 5 7 6 5 4 3 3 2 2 1
2 5 8 9 13 6 18 19 18 17 16 21 22 22 20 22 23 13 9 10 10 9 13 17 17 18 14 13 13 9 14 12 10 9 12 12 10 10 9 6 7 6 7 6 6 3 4 1 1
8 9 14 11 16 4 14 24 20 18 20 22 21 23 24 18 14 13 11 7 11 14 17 14 18 17 17 14 12 8 12 9 10 8 10 12 12 12 10 10 8 9 6 6 6 5 3 2 1
5 7 13 12 8 6 10 15 8 7 13 20 20 22 19 17 17 19 12 10 8 11 14 17 19 19 18 17 10 3 6 4 4 7 8 10 14 13 12 12 10 10 7 8 6 6 6 5 1
10 13 14 9 4 5 5 23 5 8 9 6 18 14 14 15 10 11 13 6 9 14 11 14 15 18 17 18 15 19 13 11 10 11 10 12 16 15 14 13 11 11 7 8 8 6 4 5 5
12 3 4 2 4 6 3 3 5 5 7 15 10 10 14 10 10 13 12 10 10 10 12 12 13 14 16 19 19 16 16 11 5 5 13 12 11 14 14 14 13 11 9 8 10 8 6 4 5
2 3 5 5 3 6 10 7 30 5 6 3 5 6 10 11 8 8 8 10 9 8 7 7 10 12 14 17 19 21 20 11 10 11 11 11 10 10 13 13 12 11 10 10 9 7 8 7 4
4 5 5 4 1 12 6 6 25 8 11 9 14 9 13 9 9 9 10 13 11 8 6 5 8 11 14 17 17 17 16 13 16 15 13 14 11 11 14 15 14 11 12 11 10 10 8 9 7
8 11 7 8 12 19 6 10 21 11 10 10 8 9 7 8 6 7 8 8 9 9 6 7 7 6 9 12 15 14 15 11 11 13 11 12 13 14 15 16 15 14 13 11 10 8 8 8 7
4 5 5 5 3 3 12 17 17 27 25 13 8 3 8 7 8 8 11 8 8 7 7 8 8 8 9 13 11 13 13 15 15 12 9 10 10 10 13 16 15 14 14 13 13 9 10 9 8
7 1 2 2 4 18 10 20 17 20 19 14 7 8 9 9 11 10 7 9 6 7 6 6 8 9 8 10 10 10 12 12 11 11 13 12 11 12 14 15 15 15 14 14 14 10 10 11 8
2 5 5 3 7 11 13 10 15 22 19 13 10 4 6 9 11 10 9 9 8 4 3 7 6 6 7 8 10 10 11 11 10 12 13 14 13 15 16 17 16 16 16 16 15 13 12 13 11
5 8 9 10 10 13 21 21 17 15 19 19 22 15 8 8 12 13 15 15 16 16 14 7 6 6 6 6 7 9 9 11 11 13 14 14 15 14 14 15 17 17 17 17 17 16 14 15 14
Wind_Direction
5 13 69 41 46 60 266 263 265 251 243 182 123 147 196 171 169 211 321 199 168 155 168 175 163 167 169 168 166 165 162 154 146 138 118 95 93 100 95 86 77 78 68 67 75 58 51 47 46
355 339 43 80 88 28 271 258 239 233 321 98 107 107 98 248 245 273 145 206 177 154 159 162 161 157 164 170 142 146 125 129 128 122 116 107 113 128 114 105 96 95 91 86 79 67 57 54 54
95 42 78 90 114 191 228 230 254 287 155 123 242 208 218 236 243 219 226 167 154 149 154 163 163 165 165 195 148 135 148 138 153 131 139 150 153 143 128 119 115 110 100 92 79 72 67 67 60
56 12 36 89 234 251 218 252 239 316 238 223 237 274 288 227 179 206 161 151 145 155 155 170 167 170 160 171 184 190 187 188 183 165 172 166 155 146 139 131 120 110 104 96 95 92 84 76 67
36 58 49 330 266 265 252 254 184 204 262 201 164 265 256 236 33 141 150 150 156 162 164 172 174 183 175 188 195 188 188 189 178 182 170 162 156 153 146 137 127 121 115 108 98 89 79 69 65
41 95 49 259 261 265 274 247 169 195 211 209 191 298 250 346 167 180 150 152 153 157 167 174 176 184 191 194 191 185 191 175 180 177 171 165 159 153 147 138 130 119 110 101 92 87 80 71 66
115 92 219 249 261 299 251 134 197 202 179 247 153 228 267 281 193 152 145 134 148 161 164 177 172 177 187 188 190 186 191 181 178 177 171 166 160 152 149 139 132 122 113 100 93 86 78 71 66
106 94 286 250 259 275 318 230 233 182 260 63 176 236 261 343 129 117 107 140 164 174 183 184 178 170 169 171 177 182 183 177 176 174 166 152 151 149 148 137 136 128 119 110 103 93 83 73 65
136 65 249 252 199 257 226 333 189 142 269 235 209 217 238 114 120 106 126 189 205 212 202 187 181 176 167 164 173 172 177 172 170 158 136 117 108 110 101 152 135 131 124 116 109 99 89 79 67
109 142 221 211 206 245 295 207 249 223 244 252 281 244 132 146 175 174 185 200 208 211 205 190 185 178 166 163 167 157 161 151 143 138 128 130 134 135 140 127 133 133 128 119 107 92 78 67 55
177 210 210 258 234 273 264 278 211 170 259 228 223 249 177 183 206 211 215 207 212 206 196 196 187 177 171 172 163 163 163 153 153 149 147 147 144 137 119 94 79 79 84 58 77 74 66 73 66
225 249 209 250 213 279 252 295 251 186 251 228 220 236 170 198 209 211 215 218 205 196 202 190 187 184 186 167 176 173 170 171 173 168 160 155 153 155 148 144 144 135 127 122 120 110 92 71 65
211 237 241 242 274 257 278 258 234 253 253 246 246 237 232 222 226 225 225 227 196 207 203 200 187 193 187 185 177 179 185 182 177 173 174 162 162 164 151 162 157 154 147 148 134 124 110 96 80
225 260 268 270 246 231 215 271 130 255 269 262 226 244 238 227 226 232 221 226 210 209 207 194 200 199 186 193 187 190 185 180 177 176 181 173 167 162 164 160 168 161 158 145 143 146 130 107 95
304 314 310 221 246 232 171 291 224 254 258 277 259 256 257 240 214 226 226 224 216 214 198 196 194 192 195 200 192 188 188 178 186 188 178 175 169 169 167 162 170 163 158 145 123 97 89 76 54
322 184 324 296 142 263 149 259 281 278 230 278 290 278 254 257 231 235 229 224 214 204 199 191 191 190 195 198 192 192 187 186 189 184 181 180 175 171 164 162 172 158 153 146 136 148 103 81 57
350 246 232 309 201 162 187 255 267 249 166 291 285 283 277 276 264 238 232 227 214 208 202 195 192 195 194 192 185 192 184 191 188 179 183 181 178 174 168 168 161 159 154 152 157 118 140 135 351
233 228 251 247 292 169 240 252 276 287 258 265 273 271 271 271 265 264 230 224 218 212 207 201 195 198 189 185 182 173 171 196 176 187 185 178 180 173 166 160 162 156 150 159 166 156 126 140 140
191 231 247 257 266 310 273 267 265 267 280 268 266 265 270 259 265 276 254 207 203 200 198 199 190 194 180 186 181 187 203 188 190 190 184 178 177 173 172 168 160 162 170 171 169 136 152 133 144
245 270 271 284 269 245 274 279 275 252 251 256 266 275 269 279 282 267 259 209 200 207 210 199 203 193 194 193 198 195 193 206 195 181 178 177 171 173 174 171 176 173 157 167 175 161 133 105 16
203 224 257 250 315 254 297 277 227 266 239 255 268 261 275 272 278 280 282 225 213 219 208 205 202 197 194 195 179 87 81 68 131 180 177 177 175 176 178 177 173 173 169 179 178 171 160 152 118
262 231 251 270 357 254 51 299 187 226 244 223 248 267 277 279 272 274 276 295 227 232 224 215 204 196 193 181 183 191 195 190 205 190 187 183 182 180 179 177 175 175 175 172 182 171 163 144 157
235 192 244 165 198 304 157 248 204 162 238 246 251 254 275 276 266 295 317 282 250 238 223 213 202 201 189 188 188 189 200 200 158 152 172 182 185 182 178 178 175 176 177 179 173 166 173 174 143
59 61 46 42 102 282 176 164 287 154 206 256 242 261 268 278 322 308 284 281 276 273 250 205 188 192 186 189 194 199 201 178 159 162 172 180 180 184 185 178 179 180 179 177 179 171 171 172 157
139 80 307 324 63 242 161 179 257 261 268 226 274 271 270 311 325 315 320 323 331 300 274 234 206 203 188 193 195 197 198 183 186 177 178 173 179 189 191 180 180 180 182 180 168 171 173 175 175
191 169 186 239 267 274 143 237 260 239 255 251 254 241 292 301 298 316 311 319 330 317 278 214 212 217 192 190 199 196 196 190 190 189 182 185 189 194 181 184 183 182 175 174 173 174 176 173 175
195 186 211 263 266 288 268 272 299 278 276 297 258 335 297 311 311 325 335 323 309 302 261 207 194 196 202 197 197 205 200 193 193 176 175 182 184 181 176 184 182 178 176 176 174 178 176 175 174
190 263 282 348 230 252 232 252 260 290 308 312 294 330 337 325 319 316 297 312 317 290 276 235 205 205 203 204 204 204 207 205 194 166 177 177 172 169 174 184 185 180 179 178 177 180 175 171 174
215 225 217 270 225 251 256 239 256 270 290 301 310 258 266 284 290 288 321 331 348 335 285 288 302 275 215 212 208 204 200 203 189 184 180 181 175 175 178 182 183 184 184 182 181 182 176 180 172
182 236 246 248 244 250 263 256 257 286 299 308 308 319 286 305 10 15 19 17 10 357 354 336 300 264 254 251 246 243 200 188 200 201 192 185 181 178 181 182 184 185 186 184 186 180 181 182 180